Location: Abraham Lincoln Continuation High School
(33.9711°N, 117.3662°W)
Time: 04:52:56
(UTC+00:00)

Cosmos 468 Rocket - Pass Details

Date: 21 September 2020
Orbit: 745 x 779 km, 74.0° (Epoch: 25 October)

Event Time Altitude Azimuth Distance (km) Brightness Sun altitude
Exits shadow 11:30:15 72° 167° (SSE) 817 4.0 -26.6°
Maximum altitude 11:30:45 81° 105° (ESE) 789 4.0 -26.5°
Drops below altitude 10° 11:36:02 10° 19° (NNE) 2,321 6.9 -25.5°
Sets 11:38:25 0° 19° (NNE) 3,247 7.8 -25.0°
